Weather History for Billings, MT

Change the Weather History Date:

Sunday, December 2, 2012

  Actual Average Record
Temperature  
Mean Temperature 51 °F 29 °F  
Max Temperature 61 °F 37 °F 63 °F (1956)
Min Temperature 40 °F 20 °F -23 °F (1985)
Degree Days  
Heating Degree Days 14 36  
Month to date heating degree days 28 72  
Since 1 July heating degree days 1410 1700  
Cooling Degree Days 0 0  
Month to date cooling degree days 0 0  
Year to date cooling degree days 958 636  
Moisture  
Dew Point 30 °F    
Average Humidity 48    
Maximum Humidity 62    
Minimum Humidity 33    
Precipitation  
Precipitation T in 0.02 in 0.98 in (2013)
Month to date precipitation T 0.04  
Year to date precipitation 6.86 13.20  
Snow  
Snow 0.00 in 0.20 in 4.60 in (2008)
Month to date snowfall 0.0 0.5  
Since 1 July snowfall 11.6 12.2  
Snow Depth 0.00 in    
Sea Level Pressure  
Sea Level Pressure 29.46 in    
Wind  
Wind Speed 10 mph (SW)    
Max Wind Speed 46 mph    
Max Gust Speed 59 mph    
Visibility 10 miles    
Events Rain    
T = Trace of Precipitation, MM = Missing Value Source: NWS Daily Summary

Daily Weather History Graph

Daily Weather History Graph

Search for Another Location

Airport:

Trip Planner

Search our weather history database for the weather conditions in past years. The results will help you decide how hot, cold, wet, or windy it might be!

Date:

Astronomy

Dec. 02, 2012 Rise Set
Actual Time 7:36 AM MST 4:30 PM MST
Civil Twilight 7:02 AM MST 5:04 PM MST
Nautical Twilight 6:25 AM MST 5:41 PM MST
Astronomical Twilight 5:49 AM MST 6:17 PM MST
Moon 8:26 PM MST (12/2) 10:23 AM MST (12/2)
Length of Visible Light 10h 01m
Length of Day
8h 54m
Waning Gibbous, 85% of the Moon is Illuminated
Dec 2
Waning Gibbous
Dec 6
Last Quarter
Dec 13
New
Dec 19
First Quarter
Dec 28
Full

Hourly Weather History & Observations

Time (MST) Temp. Windchill Dew Point Humidity Pressure Visibility Wind Dir Wind Speed Gust Speed Precip Events Conditions
12:53 AM 44.1 °F 42.5 °F 28.9 °F 55% 29.70 in 10.0 mi SSW 3.5 mph - N/A   Partly Cloudy
1:53 AM 45.0 °F - 28.9 °F 53% 29.68 in 10.0 mi Calm Calm - N/A   Partly Cloudy
2:53 AM 43.0 °F 40.3 °F 28.0 °F 56% 29.66 in 10.0 mi South 4.6 mph - N/A   Partly Cloudy
3:53 AM 43.0 °F 38.8 °F 28.0 °F 56% 29.62 in 10.0 mi SE 6.9 mph - N/A   Clear
4:53 AM 46.0 °F 43.9 °F 27.0 °F 47% 29.59 in 10.0 mi SSE 4.6 mph - N/A   Clear
5:53 AM 48.0 °F - 27.0 °F 44% 29.55 in 10.0 mi SSW 6.9 mph - N/A   Clear
6:53 AM 48.9 °F - 26.1 °F 41% 29.49 in 10.0 mi SSE 5.8 mph - N/A   Clear
7:53 AM 48.9 °F - 27.0 °F 43% 29.45 in 10.0 mi East 3.5 mph - N/A   Clear
8:53 AM 46.0 °F - 28.0 °F 50% 29.45 in 10.0 mi Calm Calm - N/A   Clear
9:53 AM 48.0 °F - 28.0 °F 46% 29.42 in 10.0 mi NNW 4.6 mph - N/A   Clear
10:53 AM 48.0 °F - 33.1 °F 56% 29.38 in 10.0 mi NNW 5.8 mph - N/A   Clear
11:53 AM 54.0 °F - 30.0 °F 40% 29.36 in 10.0 mi NE 3.5 mph - N/A   Clear
12:53 PM 55.0 °F - 30.9 °F 40% 29.32 in 10.0 mi WNW 3.5 mph - N/A   Clear
1:53 PM 59.0 °F - 30.9 °F 35% 29.27 in 10.0 mi SSW 8.1 mph - N/A   Clear
2:30 PM 57.2 °F - 30.2 °F 36% 29.29 in 10.0 mi SSW 8.1 mph - N/A   Clear
2:53 PM 59.0 °F - 30.9 °F 35% 29.25 in 10.0 mi SSW 10.4 mph - N/A   Partly Cloudy
3:53 PM 57.0 °F - 30.9 °F 37% 29.26 in 10.0 mi West 11.5 mph - N/A   Scattered Clouds
4:53 PM 57.2 °F - 30.2 °F 36% 29.28 in 10.0 mi West 9.2 mph - N/A   Scattered Clouds
5:53 PM 57.9 °F - 32.0 °F 37% 29.25 in 10.0 mi SW 11.5 mph 18.4 mph N/A   Partly Cloudy
6:53 PM 57.9 °F - 34.0 °F 41% 29.29 in 10.0 mi West 24.2 mph - N/A   Partly Cloudy
7:53 PM 46.9 °F - 34.0 °F 61% 29.41 in 10.0 mi NW 38.0 mph 46.0 mph N/A   Mostly Cloudy
8:53 PM 39.9 °F 28.0 °F 34.0 °F 79% 29.56 in 9.0 mi NW 32.2 mph 50.6 mph 0.00 in Rain Light Rain
9:53 PM 43.0 °F 36.4 °F 32.0 °F 65% 29.61 in 10.0 mi WSW 12.7 mph - 0.00 in   Overcast
10:53 PM 43.0 °F 35.4 °F 30.9 °F 62% 29.66 in 10.0 mi West 16.1 mph 24.2 mph N/A   Mostly Cloudy
11:53 PM 41.0 °F 33.9 °F 27.0 °F 57% 29.70 in 10.0 mi West 12.7 mph - N/A   Clear